| time (UTC) | temp F | wind direction | speed MPH | gust MPH | rain 1hr in | rain 24hr in | rain mn in | humidity % | barometer mb |
| 20260507103041 | 58 | 101 | 2.0 | 4.0 | 0.00 | 0.00 | 0.00 | 85 | 1020.2 |
| 20260507103019 | 59 | 113 | 3.0 | 4.0 | 0.00 | 0.00 | 0.00 | 85 | 1020.3 |
| 20260507102019 | 59 | 115 | 2.0 | 3.0 | 0.00 | 0.00 | 0.00 | 84 | 1020.4 |
| 20260507101544 | 59 | 138 | 2.0 | 4.0 | 0.00 | 0.00 | 0.00 | 84 | 1020.4 |
| 20260507101019 | 59 | 109 | 2.0 | 3.0 | 0.00 | 0.00 | 0.00 | 84 | 1020.5 |
| 20260507100045 | 59 | 127 | 2.0 | 4.0 | 0.00 | 0.00 | 0.00 | 83 | 1020.4 |
| 20260507100019 | 60 | 130 | 3.0 | 4.0 | 0.00 | 0.00 | 0.00 | 83 | 1020.5 |
| 20260507095019 | 60 | 104 | 2.0 | 4.0 | 0.00 | 0.00 | 0.00 | 82 | 1020.5 |
| 20260507094542 | 60 | 109 | 3.0 | 7.0 | 0.00 | 0.00 | 0.00 | 82 | 1020.5 |
| 20260507094019 | 60 | 100 | 3.0 | 4.0 | 0.00 | 0.00 | 0.00 | 82 | 1020.6 |
| 20260507093041 | 60 | 100 | 1.0 | 4.0 | 0.00 | 0.00 | 0.00 | 81 | 1020.6 |
| 20260507093019 | 60 | 101 | 2.0 | 3.0 | 0.00 | 0.00 | 0.00 | 82 | 1020.6 |
| 20260507092019 | 60 | 105 | 3.0 | 4.0 | 0.00 | 0.00 | 0.00 | 83 | 1020.8 |
| 20260507091541 | 60 | 105 | 2.0 | 4.0 | 0.00 | 0.00 | 0.00 | 82 | 1020.7 |
| 20260507091019 | 60 | 101 | 3.0 | 3.0 | 0.00 | 0.00 | 0.00 | 82 | 1020.7 |
| 20260507090042 | 60 | 90 | 2.0 | 4.0 | 0.00 | 0.00 | 0.00 | 83 | 1020.6 |
| 20260507090040 | 60 | 98 | 3.0 | 4.0 | 0.00 | 0.00 | 0.00 | 83 | 1020.8 |
| 20260507085019 | 60 | 96 | 2.0 | 3.0 | 0.00 | 0.00 | 0.00 | 84 | 1020.9 |
| 20260507084551 | 60 | 99 | 2.0 | 4.0 | 0.00 | 0.00 | 0.00 | 84 | 1020.7 |
| 20260507084019 | 60 | 104 | 2.0 | 4.0 | 0.00 | 0.00 | 0.00 | 85 | 1020.9 |
| 20260507083048 | 59 | 110 | 2.0 | 4.0 | 0.00 | 0.00 | 0.00 | 86 | 1020.8 |
| 20260507083019 | 60 | 113 | 3.0 | 3.0 | 0.00 | 0.00 | 0.00 | 87 | 1020.9 |
| 20260507082101 | 60 | 106 | 3.0 | 4.0 | 0.00 | 0.00 | 0.00 | 86 | 1021.0 |
| 20260507081541 | 59 | 110 | 2.0 | 4.0 | 0.00 | 0.00 | 0.00 | 86 | 1021.0 |
| 20260507081040 | 60 | 92 | 2.0 | 3.0 | 0.00 | 0.00 | 0.00 | 87 | 1021.0 |
| 20260507080055 | 60 | 96 | 2.0 | 4.0 | 0.00 | 0.00 | 0.00 | 86 | 1020.8 |
| 20260507080019 | 60 | 101 | 3.0 | 4.0 | 0.00 | 0.00 | 0.00 | 87 | 1020.9 |
| 20260507075019 | 60 | 105 | 3.0 | 3.0 | 0.00 | 0.00 | 0.00 | 86 | 1021.0 |
| 20260507074544 | 60 | 107 | 2.0 | 6.0 | 0.00 | 0.00 | 0.00 | 86 | 1020.9 |
| 20260507074040 | 60 | 92 | 2.0 | 3.0 | 0.00 | 0.00 | 0.00 | 88 | 1020.9 |
| 20260507073052 | 60 | 105 | 2.0 | 3.0 | 0.00 | 0.00 | 0.00 | 89 | 1020.7 |
| 20260507073018 | 60 | 105 | 2.0 | 3.0 | 0.00 | 0.00 | 0.00 | 89 | 1020.8 |
| 20260507072019 | 60 | 102 | 2.0 | 3.0 | 0.00 | 0.00 | 0.00 | 90 | 1020.6 |
| 20260507071558 | 60 | 102 | 2.0 | 3.0 | 0.00 | 0.00 | 0.00 | 90 | 1020.6 |
| 20260507071019 | 61 | 104 | 2.0 | 3.0 | 0.00 | 0.00 | 0.00 | 92 | 1020.5 |
| 20260507070043 | 60 | 105 | 2.0 | 3.0 | 0.00 | 0.00 | 0.00 | 92 | 1020.4 |
| 20260507070019 | 61 | 114 | 2.0 | 3.0 | 0.00 | 0.00 | 0.00 | 92 | 1020.5 |
| 20260507065019 | 61 | 114 | 2.0 | 3.0 | 0.00 | 0.00 | 0.00 | 91 | 1020.4 |
| 20260507064546 | 61 | 111 | 1.0 | 3.0 | 0.00 | 0.00 | 0.00 | 90 | 1020.3 |
| 20260507064040 | 62 | 45 | 1.0 | 2.0 | 0.00 | 0.00 | 0.00 | 92 | 1020.2 |
| 20260507063042 | 62 | 91 | 1.0 | 3.0 | 0.00 | 0.00 | 0.00 | 93 | 1020.0 |
| 20260507063019 | 62 | 96 | 1.0 | 2.0 | 0.00 | 0.00 | 0.00 | 94 | 1020.1 |
| 20260507062019 | 63 | 126 | 2.0 | 3.0 | 0.00 | 0.00 | 0.00 | 95 | 1019.9 |
| 20260507061544 | 63 | 132 | 0.0 | 2.0 | 0.00 | 0.00 | 0.00 | 95 | 1019.9 |
| 20260507061019 | 63 | 136 | 1.0 | 2.0 | 0.00 | 0.00 | 0.00 | 96 | 1019.8 |
| 20260507060044 | 63 | 0 | 0.0 | 1.0 | 0.00 | 0.00 | 0.00 | 95 | 1019.9 |
| 20260507060041 | 63 | 0.0 | 0.0 | 0.00 | 0.00 | 0.00 | 96 | 1019.8 | |
| 20260507055019 | 64 | 0.0 | 0.0 | 0.00 | 0.00 | 0.00 | 97 | 1019.7 | |
| 20260507054549 | 63 | 146 | 0.0 | 2.0 | 0.00 | 0.00 | 0.00 | 96 | 1019.5 |
| 20260507054019 | 64 | 143 | 1.0 | 2.0 | 0.00 | 0.00 | 0.00 | 97 | 1019.5 |
| 20260507053046 | 64 | 0 | 0.0 | 1.0 | 0.00 | 0.00 | 0.00 | 97 | 1019.5 |
| 20260507053040 | 64 | 0.0 | 1.0 | 0.00 | 0.00 | 0.00 | 97 | 1019.5 | |
| 20260507052019 | 64 | 0.0 | 0.0 | 0.00 | 0.00 | 0.00 | 97 | 1019.2 | |
| 20260507051541 | 64 | 332 | 0.0 | 2.0 | 0.00 | 0.00 | 0.00 | 96 | 1019.1 |
| 20260507051019 | 64 | 327 | 0.0 | 2.0 | 0.00 | 0.00 | 0.00 | 97 | 1019.1 |
| 20260507050048 | 64 | 343 | 0.0 | 3.0 | 0.00 | 0.00 | 0.00 | 96 | 1018.8 |
| 20260507050019 | 65 | 338 | 1.0 | 2.0 | 0.00 | 0.00 | 0.00 | 96 | 1019.0 |
| 20260507045019 | 65 | 327 | 1.0 | 3.0 | 0.00 | 0.00 | 0.00 | 96 | 1018.8 |
| 20260507044542 | 64 | 0 | 0.0 | 5.0 | 0.00 | 0.00 | 0.00 | 96 | 1018.8 |
| 20260507044019 | 65 | 345 | 2.0 | 3.0 | 0.00 | 0.00 | 0.00 | 96 | 1018.9 |
| 20260507043041 | 65 | 0 | 1.0 | 4.0 | 0.00 | 0.00 | 0.00 | 95 | 1018.8 |
| 20260507043019 | 65 | 294 | 1.0 | 2.0 | 0.00 | 0.00 | 0.00 | 96 | 1018.8 |
| 20260507042019 | 66 | 337 | 2.0 | 4.0 | 0.00 | 0.00 | 0.00 | 95 | 1018.6 |
| 20260507041541 | 65 | 327 | 2.0 | 6.0 | 0.00 | 0.00 | 0.00 | 94 | 1018.6 |
| 20260507041019 | 66 | 354 | 3.0 | 4.0 | 0.00 | 0.00 | 0.00 | 95 | 1018.5 |
| 20260507040051 | 65 | 310 | 2.0 | 5.0 | 0.00 | 0.00 | 0.00 | 94 | 1018.4 |
| 20260507040019 | 66 | 341 | 3.0 | 5.0 | 0.00 | 0.00 | 0.00 | 94 | 1018.4 |
| 20260507035018 | 66 | 316 | 2.0 | 4.0 | 0.00 | 0.00 | 0.00 | 94 | 1018.4 |
| 20260507034554 | 65 | 17 | 3.0 | 6.0 | 0.00 | 0.00 | 0.00 | 93 | 1018.4 |
| 20260507034019 | 66 | 338 | 4.0 | 5.0 | 0.00 | 0.00 | 0.00 | 93 | 1018.4 |
| 20260507033044 | 66 | 339 | 4.0 | 10.0 | 0.00 | 0.00 | 0.00 | 92 | 1018.3 |
| 20260507033019 | 66 | 343 | 4.0 | 6.0 | 0.00 | 0.00 | 0.00 | 92 | 1018.4 |
| 20260507032039 | 68 | 338 | 3.0 | 6.0 | 0.00 | 0.00 | 0.00 | 91 | 1018.3 |
| 20260507031541 | 68 | 329 | 3.0 | 8.0 | 0.00 | 0.00 | 0.00 | 90 | 1018.2 |
| 20260507031040 | 69 | 329 | 4.0 | 6.0 | 0.00 | 0.00 | 0.00 | 91 | 1018.2 |
| 20260507030041 | 68 | 9 | 2.0 | 9.0 | 0.00 | 0.00 | 0.00 | 90 | 1018.0 |
| 20260507025019 | 69 | 337 | 3.0 | 8.0 | 0.00 | 0.00 | 0.00 | 91 | 1017.8 |
| 20260507024540 | 68 | 351 | 5.0 | 10.0 | 0.00 | 0.00 | 0.00 | 89 | 1017.8 |
| 20260507024019 | 69 | 326 | 5.0 | 8.0 | 0.00 | 0.00 | 0.00 | 90 | 1017.9 |
| 20260507023043 | 68 | 273 | 5.0 | 11.0 | 0.00 | 0.00 | 0.00 | 89 | 1017.9 |
| 20260507023040 | 69 | 338 | 5.0 | 11.0 | 0.00 | 0.00 | 0.00 | 90 | 1017.9 |
| 20260507022019 | 69 | 314 | 5.0 | 10.0 | 0.00 | 0.00 | 0.00 | 90 | 1017.9 |
| 20260507021546 | 69 | 321 | 2.0 | 13.0 | 0.00 | 0.00 | 0.00 | 90 | 1017.9 |
| 20260507021018 | 69 | 308 | 4.0 | 7.0 | 0.00 | 0.00 | 0.00 | 91 | 1018.0 |
| 20260507020047 | 68 | 352 | 6.0 | 12.0 | 0.00 | 0.00 | 0.00 | 90 | 1018.1 |
| 20260507020019 | 69 | 356 | 5.0 | 9.0 | 0.00 | 0.00 | 0.00 | 90 | 1018.1 |
| 20260507015019 | 70 | 338 | 5.0 | 10.0 | 0.00 | 0.00 | 0.00 | 91 | 1018.0 |
| 20260507014549 | 69 | 349 | 3.0 | 12.0 | 0.00 | 0.00 | 0.00 | 91 | 1018.0 |
| 20260507014019 | 69 | 342 | 8.0 | 11.0 | 0.00 | 0.00 | 0.00 | 89 | 1018.2 |
| 20260507013041 | 68 | 322 | 4.0 | 11.0 | 0.00 | 0.00 | 0.00 | 90 | 1017.9 |
| 20260507013019 | 69 | 340 | 5.0 | 11.0 | 0.00 | 0.00 | 0.00 | 92 | 1018.0 |
| 20260507012019 | 68 | 339 | 5.0 | 9.0 | 0.00 | 0.00 | 0.00 | 92 | 1018.1 |
| 20260507011556 | 67 | 329 | 3.0 | 8.0 | 0.00 | 0.00 | 0.00 | 93 | 1018.1 |
| 20260507011019 | 67 | 339 | 5.0 | 8.0 | 0.00 | 0.00 | 0.00 | 94 | 1018.2 |
| 20260507010044 | 66 | 283 | 3.0 | 10.0 | 0.00 | 0.00 | 0.00 | 95 | 1018.2 |
| 20260507010040 | 67 | 331 | 4.0 | 6.0 | 0.00 | 0.00 | 0.00 | 95 | 1018.2 |
| 20260507005019 | 67 | 330 | 5.0 | 8.0 | 0.00 | 0.00 | 0.00 | 96 | 1018.3 |
| 20260507004543 | 66 | 346 | 4.0 | 10.0 | 0.00 | 0.00 | 0.00 | 96 | 1018.4 |
| 20260507004019 | 67 | 332 | 4.0 | 8.0 | 0.00 | 0.00 | 0.00 | 95 | 1018.4 |
| 20260507003041 | 67 | 336 | 2.0 | 11.0 | 0.00 | 0.00 | 0.00 | 95 | 1018.4 |
| 20260507003019 | 67 | 308 | 2.0 | 7.0 | 0.00 | 0.00 | 0.00 | 96 | 1018.4 |
| 20260507002019 | 67 | 330 | 3.0 | 5.0 | 0.00 | 0.00 | 0.00 | 95 | 1018.6 |
| 20260507001550 | 67 | 345 | 3.0 | 12.0 | 0.00 | 0.00 | 0.00 | 94 | 1018.5 |
| 20260507001040 | 67 | 341 | 4.0 | 6.0 | 0.00 | 0.00 | 0.00 | 94 | 1018.8 |
| 20260507000042 | 67 | 315 | 3.0 | 10.0 | 0.00 | 0.00 | 0.00 | 92 | 1018.8 |
| 20260507000019 | 68 | 313 | 4.0 | 5.0 | 0.00 | 0.00 | 0.00 | 92 | 1018.8 |
| 20260506235018 | 69 | 341 | 5.0 | 8.0 | 0.00 | 0.00 | 0.00 | 89 | 1018.9 |
| 20260506234545 | 69 | 327 | 2.0 | 9.0 | 0.00 | 0.00 | 0.00 | 88 | 1018.8 |
| 20260506234018 | 69 | 315 | 3.0 | 5.0 | 0.00 | 0.00 | 0.00 | 89 | 1019.0 |
| 20260506233043 | 69 | 219 | 1.0 | 8.0 | 0.00 | 0.00 | 0.00 | 89 | 1019.1 |
| 20260506233020 | 69 | 328 | 2.0 | 4.0 | 0.00 | 0.00 | 0.00 | 90 | 1019.1 |
| 20260506232019 | 69 | 343 | 3.0 | 5.0 | 0.00 | 0.00 | 0.00 | 88 | 1019.2 |
| 20260506231541 | 68 | 339 | 4.0 | 9.0 | 0.00 | 0.00 | 0.00 | 86 | 1019.1 |
| 20260506231019 | 69 | 345 | 2.0 | 5.0 | 0.00 | 0.00 | 0.00 | 90 | 1019.2 |
| 20260506230048 | 68 | 336 | 2.0 | 8.0 | 0.00 | 0.00 | 0.00 | 90 | 1019.1 |
| 20260506230018 | 68 | 293 | 3.0 | 5.0 | 0.00 | 0.00 | 0.00 | 91 | 1019.2 |
| 20260506225019 | 68 | 346 | 5.0 | 8.0 | 0.00 | 0.00 | 0.00 | 91 | 1019.4 |
| 20260506224540 | 67 | 344 | 3.0 | 6.0 | 0.00 | 0.00 | 0.00 | 91 | 1019.4 |
| 20260506224019 | 68 | 348 | 3.0 | 5.0 | 0.00 | 0.00 | 0.00 | 92 | 1019.5 |
| 20260506223042 | 67 | 329 | 2.0 | 6.0 | 0.00 | 0.00 | 0.00 | 91 | 1019.4 |
| 20260506223018 | 68 | 319 | 3.0 | 6.0 | 0.00 | 0.00 | 0.00 | 91 | 1019.4 |
| 20260506222040 | 68 | 346 | 4.0 | 6.0 | 0.00 | 0.00 | 0.00 | 90 | 1019.5 |
| 20260506221545 | 68 | 9 | 3.0 | 8.0 | 0.00 | 0.00 | 0.00 | 89 | 1019.5 |
| 20260506221018 | 69 | 340 | 3.0 | 5.0 | 0.00 | 0.00 | 0.00 | 91 | 1019.6 |
| 20260506220057 | 68 | 336 | 2.0 | 5.0 | 0.00 | 0.00 | 0.00 | 89 | 1019.6 |
| 20260506220018 | 69 | 326 | 2.0 | 4.0 | 0.00 | 0.00 | 0.00 | 89 | 1019.7 |
| 20260506215019 | 69 | 359 | 2.0 | 3.0 | 0.00 | 0.00 | 0.00 | 88 | 1019.8 |
| 20260506214545 | 69 | 265 | 2.0 | 6.0 | 0.00 | 0.00 | 0.00 | 88 | 1019.7 |
| 20260506214019 | 70 | 315 | 1.0 | 2.0 | 0.00 | 0.00 | 0.00 | 88 | 1019.8 |
| 20260506213041 | 70 | 230 | 2.0 | 6.0 | 0.00 | 0.00 | 0.00 | 87 | 1019.9 |
| 20260506212019 | 70 | 321 | 2.0 | 3.0 | 0.00 | 0.00 | 0.00 | 91 | 1020.2 |
| 20260506211541 | 69 | 299 | 2.0 | 7.0 | 0.00 | 0.00 | 0.00 | 89 | 1020.0 |
| 20260506211018 | 69 | 294 | 2.0 | 3.0 | 0.00 | 0.00 | 0.00 | 88 | 1020.2 |
| 20260506210055 | 70 | 0 | 2.0 | 8.0 | 0.00 | 0.00 | 0.00 | 87 | 1020.1 |
| 20260506210019 | 70 | 253 | 2.0 | 4.0 | 0.00 | 0.00 | 0.00 | 88 | 1020.2 |
| 20260506205018 | 69 | 334 | 3.0 | 4.0 | 0.00 | 0.00 | 0.00 | 88 | 1020.3 |
| 20260506204544 | 68 | 344 | 2.0 | 8.0 | 0.00 | 0.00 | 0.00 | 87 | 1020.1 |
| 20260506204018 | 69 | 339 | 3.0 | 4.0 | 0.00 | 0.00 | 0.00 | 88 | 1020.1 |
| 20260506203121 | 69 | 271 | 2.0 | 5.0 | 0.00 | 0.00 | 0.00 | 86 | 1020.0 |
| 20260506203018 | 69 | 316 | 1.0 | 4.0 | 0.00 | 0.00 | 0.00 | 86 | 1020.0 |
| 20260506202019 | 70 | 355 | 1.0 | 3.0 | 0.00 | 0.00 | 0.00 | 83 | 1020.1 |
| 20260506201541 | 69 | 229 | 1.0 | 5.0 | 0.00 | 0.00 | 0.00 | 87 | 1020.1 |
| 20260506201018 | 69 | 327 | 2.0 | 4.0 | 0.00 | 0.00 | 0.00 | 88 | 1020.0 |
| 20260506200047 | 68 | 311 | 1.0 | 6.0 | 0.00 | 0.00 | 0.00 | 87 | 1019.8 |
| 20260506200019 | 68 | 305 | 2.0 | 3.0 | 0.00 | 0.00 | 0.00 | 87 | 1019.9 |
| 20260506195019 | 68 | 268 | 2.0 | 3.0 | 0.00 | 0.00 | 0.00 | 85 | 1020.0 |
| 20260506194545 | 68 | 287 | 2.0 | 5.0 | 0.00 | 0.00 | 0.00 | 84 | 1020.1 |
| 20260506194018 | 69 | 304 | 1.0 | 2.0 | 0.00 | 0.00 | 0.00 | 86 | 1020.1 |
| 20260506193045 | 68 | 315 | 1.0 | 4.0 | 0.00 | 0.00 | 0.00 | 82 | 1019.9 |
| 20260506193018 | 69 | 300 | 1.0 | 4.0 | 0.00 | 0.00 | 0.00 | 83 | 1020.1 |
| 20260506192019 | 69 | 323 | 2.0 | 4.0 | 0.00 | 0.00 | 0.00 | 83 | 1019.9 |
| 20260506191544 | 68 | 268 | 1.0 | 5.0 | 0.00 | 0.00 | 0.00 | 81 | 1019.8 |
| 20260506191019 | 69 | 278 | 1.0 | 2.0 | 0.00 | 0.00 | 0.00 | 79 | 1019.8 |
| 20260506190048 | 69 | 0 | 1.0 | 3.0 | 0.00 | 0.00 | 0.00 | 79 | 1019.7 |
| 20260506190019 | 70 | 268 | 1.0 | 3.0 | 0.00 | 0.00 | 0.00 | 79 | 1019.7 |
| 20260506185018 | 70 | 311 | 1.0 | 3.0 | 0.00 | 0.00 | 0.00 | 78 | 1019.7 |
| 20260506184554 | 69 | 318 | 1.0 | 3.0 | 0.00 | 0.00 | 0.00 | 78 | 1019.5 |
| 20260506184018 | 69 | 314 | 1.0 | 2.0 | 0.00 | 0.00 | 0.00 | 79 | 1019.6 |
| 20260506183044 | 68 | 340 | 1.0 | 3.0 | 0.00 | 0.00 | 0.00 | 77 | 1019.6 |
| 20260506183019 | 69 | 296 | 2.0 | 3.0 | 0.00 | 0.00 | 0.00 | 79 | 1019.7 |
| 20260506182018 | 68 | 312 | 2.0 | 3.0 | 0.00 | 0.00 | 0.00 | 79 | 1019.6 |
| 20260506181541 | 67 | 0 | 0.0 | 2.0 | 0.00 | 0.00 | 0.00 | 80 | 1019.6 |
| 20260506181039 | 67 | 296 | 0.0 | 2.0 | 0.00 | 0.00 | 0.00 | 82 | 1019.5 |
| 20260506180042 | 67 | 315 | 0.0 | 4.0 | 0.00 | 0.00 | 0.00 | 77 | 1019.2 |
| 20260506180040 | 68 | 297 | 1.0 | 2.0 | 0.00 | 0.00 | 0.00 | 77 | 1019.3 |
| 20260506175101 | 68 | 341 | 3.0 | 4.0 | 0.00 | 0.00 | 0.00 | 74 | 1019.2 |
| 20260506174543 | 67 | 313 | 0.0 | 4.0 | 0.00 | 0.00 | 0.00 | 71 | 1019.1 |
| 20260506174018 | 66 | 61 | 1.0 | 2.0 | 0.00 | 0.00 | 0.00 | 74 | 1019.1 |
| 20260506173053 | 63 | 52 | 2.0 | 7.0 | 0.00 | 0.00 | 0.00 | 74 | 1019.0 |
| 20260506173019 | 64 | 90 | 2.0 | 4.0 | 0.00 | 0.00 | 0.00 | 75 | 1019.1 |
| 20260506172019 | 62 | 105 | 3.0 | 7.0 | 0.00 | 0.00 | 0.00 | 76 | 1019.0 |
| 20260506171544 | 61 | 89 | 2.0 | 6.0 | 0.00 | 0.00 | 0.00 | 77 | 1018.9 |
| 20260506171019 | 61 | 68 | 1.0 | 3.0 | 0.00 | 0.00 | 0.00 | 79 | 1019.0 |
| 20260506170043 | 59 | 122 | 2.0 | 6.0 | 0.00 | 0.00 | 0.00 | 80 | 1018.7 |
| 20260506170040 | 60 | 110 | 2.0 | 6.0 | 0.00 | 0.00 | 0.00 | 81 | 1018.7 |
| 20260506165019 | 59 | 110 | 2.0 | 3.0 | 0.00 | 0.00 | 0.00 | 81 | 1018.5 |
| 20260506164547 | 58 | 101 | 2.0 | 4.0 | 0.00 | 0.00 | 0.00 | 82 | 1018.4 |
| 20260506164018 | 59 | 114 | 2.0 | 4.0 | 0.00 | 0.00 | 0.00 | 82 | 1018.5 |
| 20260506163056 | 59 | 128 | 2.0 | 6.0 | 0.00 | 0.00 | 0.00 | 80 | 1018.2 |
| 20260506163018 | 59 | 118 | 2.0 | 3.0 | 0.00 | 0.00 | 0.00 | 80 | 1018.3 |
| 20260506162039 | 59 | 116 | 2.0 | 3.0 | 0.00 | 0.00 | 0.00 | 81 | 1018.3 |
| 20260506161544 | 58 | 90 | 2.0 | 5.0 | 0.00 | 0.00 | 0.00 | 82 | 1018.1 |
| 20260506161018 | 58 | 103 | 2.0 | 4.0 | 0.00 | 0.00 | 0.00 | 83 | 1018.2 |
| 20260506160045 | 57 | 114 | 1.0 | 3.0 | 0.00 | 0.00 | 0.00 | 81 | 1018.1 |
| 20260506160018 | 58 | 106 | 2.0 | 2.0 | 0.00 | 0.00 | 0.00 | 82 | 1018.2 |
| 20260506155518 | 58 | 119 | 2.0 | 3.0 | 0.00 | 0.00 | 0.00 | 82 | 1018.1 |
| 20260506154619 | 57 | 106 | 3.0 | 5.0 | 0.00 | 0.00 | 0.00 | 82 | 1017.9 |
| 20260506154552 | 57 | 93 | 2.0 | 4.0 | 0.00 | 0.00 | 0.00 | 82 | 1017.9 |
| 20260506153618 | 57 | 116 | 2.0 | 3.0 | 0.00 | 0.00 | 0.00 | 83 | 1018.0 |
| 20260506153040 | 57 | 119 | 1.0 | 3.0 | 0.00 | 0.00 | 0.00 | 82 | 1017.9 |
| 20260506152618 | 58 | 111 | 2.0 | 3.0 | 0.00 | 0.00 | 0.00 | 82 | 1018.0 |
| 20260506151619 | 58 | 115 | 2.0 | 3.0 | 0.00 | 0.00 | 0.00 | 82 | 1017.9 |
| 20260506151541 | 58 | 115 | 2.0 | 4.0 | 0.00 | 0.00 | 0.00 | 81 | 1017.9 |
| 20260506150618 | 59 | 108 | 2.0 | 3.0 | 0.00 | 0.00 | 0.00 | 80 | 1017.8 |
| 20260506150045 | 59 | 105 | 2.0 | 7.0 | 0.00 | 0.00 | 0.00 | 79 | 1017.7 |
| 20260506145619 | 60 | 109 | 2.0 | 4.0 | 0.00 | 0.00 | 0.00 | 80 | 1017.7 |
| 20260506144619 | 59 | 110 | 4.0 | 8.0 | 0.00 | 0.00 | 0.00 | 80 | 1017.7 |
| 20260506144542 | 59 | 105 | 3.0 | 8.0 | 0.00 | 0.00 | 0.00 | 79 | 1017.7 |
| 20260506143619 | 59 | 109 | 3.0 | 4.0 | 0.00 | 0.00 | 0.00 | 80 | 1017.7 |
| 20260506143042 | 58 | 107 | 3.0 | 7.0 | 0.00 | 0.00 | 0.00 | 79 | 1017.6 |
| 20260506142619 | 59 | 108 | 2.0 | 3.0 | 0.00 | 0.00 | 0.00 | 80 | 1017.6 |
| 20260506141619 | 58 | 102 | 4.0 | 6.0 | 0.00 | 0.00 | 0.00 | 83 | 1017.6 |
| 20260506141541 | 58 | 132 | 3.0 | 4.0 | 0.00 | 0.00 | 0.00 | 82 | 1017.6 |
| 20260506140618 | 58 | 110 | 2.0 | 4.0 | 0.00 | 0.00 | 0.00 | 83 | 1017.7 |
| 20260506140041 | 58 | 129 | 2.0 | 4.0 | 0.00 | 0.00 | 0.00 | 81 | 1017.8 |
| 20260506135618 | 58 | 118 | 2.0 | 4.0 | 0.00 | 0.00 | 0.00 | 80 | 1017.9 |
| 20260506134618 | 58 | 119 | 3.0 | 4.0 | 0.00 | 0.00 | 0.00 | 79 | 1017.7 |
| 20260506134545 | 58 | 136 | 2.0 | 5.0 | 0.00 | 0.00 | 0.00 | 79 | 1017.7 |
| 20260506133618 | 59 | 108 | 2.0 | 3.0 | 0.00 | 0.00 | 0.00 | 80 | 1017.8 |
| 20260506133047 | 58 | 119 | 2.0 | 4.0 | 0.00 | 0.00 | 0.00 | 79 | 1017.8 |
| 20260506132618 | 58 | 104 | 3.0 | 3.0 | 0.00 | 0.00 | 0.00 | 78 | 1017.7 |
| 20260506131617 | 58 | 115 | 2.0 | 3.0 | 0.00 | 0.00 | 0.00 | 78 | 1017.6 |
| 20260506131542 | 58 | 121 | 2.0 | 7.0 | 0.00 | 0.00 | 0.00 | 78 | 1017.6 |
| 20260506130618 | 58 | 112 | 3.0 | 3.0 | 0.00 | 0.00 | 0.00 | 78 | 1017.7 |
| 20260506130041 | 57 | 111 | 2.0 | 4.0 | 0.00 | 0.00 | 0.00 | 78 | 1017.7 |
| 20260506125618 | 58 | 117 | 2.0 | 3.0 | 0.00 | 0.00 | 0.00 | 78 | 1017.7 |
| 20260506124619 | 58 | 117 | 3.0 | 7.0 | 0.00 | 0.00 | 0.00 | 75 | 1017.8 |
| 20260506124544 | 58 | 117 | 2.0 | 7.0 | 0.00 | 0.00 | 0.00 | 75 | 1017.7 |
| 20260506123618 | 58 | 114 | 3.0 | 4.0 | 0.00 | 0.00 | 0.00 | 77 | 1017.9 |
| 20260506123037 | 57 | 126 | 2.0 | 4.0 | 0.00 | 0.00 | 0.00 | 77 | 1017.7 |
| 20260506122639 | 58 | 125 | 3.0 | 4.0 | 0.00 | 0.00 | 0.00 | 77 | 1017.7 |
| 20260506121619 | 59 | 110 | 2.0 | 3.0 | 0.00 | 0.00 | 0.00 | 76 | 1017.9 |
| 20260506121553 | 58 | 107 | 2.0 | 6.0 | 0.00 | 0.00 | 0.00 | 76 | 1017.9 |
| 20260506120618 | 60 | 103 | 3.0 | 3.0 | 0.00 | 0.00 | 0.00 | 75 | 1018.2 |
| 20260506120044 | 59 | 114 | 2.0 | 6.0 | 0.00 | 0.00 | 0.00 | 73 | 1018.0 |
| 20260506115619 | 60 | 119 | 3.0 | 5.0 | 0.00 | 0.00 | 0.00 | 73 | 1018.1 |
| 20260506114618 | 59 | 133 | 2.0 | 8.0 | 0.00 | 0.00 | 0.00 | 75 | 1018.3 |
| 20260506114542 | 58 | 126 | 4.0 | 8.0 | 0.00 | 0.00 | 0.00 | 75 | 1018.2 |
| 20260506113619 | 59 | 137 | 2.0 | 5.0 | 0.00 | 0.00 | 0.00 | 74 | 1018.3 |
| 20260506113041 | 58 | 113 | 2.0 | 8.0 | 0.00 | 0.00 | 0.00 | 76 | 1018.4 |
| 20260506112618 | 59 | 117 | 4.0 | 8.0 | 0.00 | 0.00 | 0.00 | 77 | 1018.6 |
| 20260506111619 | 58 | 119 | 3.0 | 4.0 | 0.00 | 0.00 | 0.00 | 80 | 1018.8 |
| 20260506111542 | 58 | 123 | 2.0 | 6.0 | 0.00 | 0.00 | 0.00 | 80 | 1018.7 |
| 20260506110618 | 59 | 128 | 2.0 | 6.0 | 0.00 | 0.00 | 0.00 | 82 | 1019.0 |
| 20260506110045 | 59 | 133 | 2.0 | 4.0 | 0.00 | 0.00 | 0.00 | 82 | 1019.1 |
| 20260506105618 | 59 | 109 | 2.0 | 4.0 | 0.00 | 0.00 | 0.00 | 83 | 1019.2 |
| 20260506104619 | 59 | 110 | 3.0 | 4.0 | 0.00 | 0.00 | 0.00 | 82 | 1019.6 |
| 20260506104546 | 59 | 111 | 2.0 | 4.0 | 0.00 | 0.00 | 0.00 | 81 | 1019.5 |